Volver al catálogo

CAS500-1

ActivoCienciaSSO
NORAD 47932·PAYLOAD·🇰🇷 South Korea

Lanzado Mar 22, 2021 desde Baikonur Cosmodrome

Loading…

Próximos Pases (próximas 24 horas)

TLE

ActualizadoSource: Space-Track

Época: Sep 14, 2026, 21:55 UTC

1 47932U 21022A   26257.91361090  .00005586  00000-0  26083-3 0  9999
2 47932  97.3759 151.2832 0004706 354.6758   5.4427 15.20207170304390

Sigue CAS500-1 en tiempo real con AllMySat

Download on the App Store